Location: Newenden
(51.0000°N, 0.6167°E)
Time: 02:47:06
(UTC+00:00)

Cosmos 2369 Rocket - Pass Details

Date: 11 December 2025
Orbit: 829 x 850 km, 71.0° (Epoch: 22 April)

Event Time Altitude Azimuth Distance (km) Brightness Sun altitude
Rises 16:54:06 0° 258° (WSW) 3,388 7.2 -9.3°
Reaches altitude 10° 16:57:08 10° 274° (W) 2,461 5.7 -9.8°
Maximum altitude 17:01:25 22° 324° (NW) 1,789 4.1 -10.4°
Drops below altitude 10° 17:05:44 10° 13° (NNE) 2,480 4.3 -11.0°
Enters shadow 17:07:25 - 23° (NNE) 2,976 4.6 -11.2°
